This demonstration page uses our WeatherBlox Daily Observations layout. Learn more.

Left ArrowRight Arrow

Hourly Observations for June 3, 2017

Temp ( °F °C ) Dew Point ( °F °C ) Humidity (%) Winds ( mph kmh ) Pressure ( in mb ) Visibility ( mi km ) Precip ( " mm )
12:15 am 00:15 Clear 66 19 56 13.5 71 71 S 6 9 29.94 1014 10 16.0934 0 0
12:35 am 00:35 Clear 66 18.8 56 13.6 72 72 S 5 7 29.94 1014 10 16.0934 0 0
12:55 am 00:55 Clear 65 18.5 56 13.6 73 73 S 6 9 29.97 1015 10 16.0934 0 0
1:15 am 01:15 Clear 65 18.2 56 13.6 75 75 S 6 9 29.94 1014 10 16.0934 0 0
1:35 am 01:35 Clear 64 18 56 13.6 76 76 S 6 9 29.94 1014 10 16.0934 0 0
1:55 am 01:55 Clear 65 18.3 57 14 76 76 S 6 9 29.94 1014 10 16.0934 0 0
2:15 am 02:15 Clear 65 18.3 57 14 76 76 S 7 11 29.94 1014 10 16.0934 0 0
2:35 am 02:35 Clear 64 18 57 14 78 78 S 6 9 29.94 1014 10 16.0934 0 0
2:55 am 02:55 Clear 64 17.7 57 14.1 80 80 S 8 13 29.94 1014 10 16.0934 0 0
3:15 am 03:15 Clear 63 17.1 57 13.9 82 82 S 5 7 29.94 1014 10 16.0934 0 0
3:35 am 03:35 Clear 63 17 57 14.1 83 83 S 5 7 29.94 1014 10 16.0934 0 0
3:55 am 03:55 Clear 62 16.5 58 14.2 86 86 S 3 6 29.94 1014 10 16.0934 0 0
4:15 am 04:15 Clear 61 16.2 58 14.2 88 88 S 3 6 29.94 1014 10 16.0934 0 0
4:35 am 04:35 Clear 61 16.3 58 14.3 88 88 S 5 7 29.94 1014 10 16.0934 0 0
4:55 am 04:55 Clear 60 15.7 57 14 90 90 S 5 7 29.97 1015 10 16.0934 0 0
5:15 am 05:15 Clear 60 15.6 57 14 90 90 Calm 29.97 1015 10 16.0934 0 0
5:35 am 05:35 Clear 60 15.8 58 14.3 91 91 Calm 29.97 1015 10 16.0934 0 0
5:55 am 05:55 Clear 60 15.7 58 14.2 91 91 S 5 7 29.97 1015 10 16.0934 0 0
6:15 am 06:15 Sunny 58 14.5 56 13.1 91 91 SE 3 6 30 1016 10 16.0934 0 0
6:35 am 06:35 Sunny 59 15 57 13.9 93 93 Calm 30 1016 10 16.0934 0 0
6:55 am 06:55 Sunny 60 15.5 57 14 91 91 S 5 7 30 1016 10 16.0934 0 0
7:15 am 07:15 Sunny 61 16 58 14.5 91 91 SSW 3 6 30 1016 10 16.0934 0 0
7:35 am 07:35 Sunny 62 16.5 59 14.9 90 90 Calm 29.97 1015 10 16.0934 0 0
7:55 am 07:55 Sunny 63 17.3 60 15.3 88 88 S 3 6 29.97 1015 10 16.0934 0 0
8:15 am 08:15 Sunny 66 18.7 60 15.8 83 83 SSW 6 9 30 1016 10 16.0934 0 0
8:35 am 08:35 Sunny 67 19.7 61 16.1 80 80 SSW 9 15 30 1016 10 16.0934 0 0
8:55 am 08:55 Sunny 69 20.5 62 16.5 78 78 SSW 8 13 29.97 1015 10 16.0934 0 0
9:15 am 09:15 Sunny 70 21 62 16.6 76 76 SSW 7 11 29.97 1015 10 16.0934 0 0
9:35 am 09:35 Sunny 71 21.7 62 16.7 73 73 SSW 5 7 29.97 1015 10 16.0934 0 0
9:55 am 09:55 Sunny 72 22.1 62 16.7 72 72 SW 6 9 29.97 1015 10 16.0934 0 0
10:15 am 10:15 Sunny 73 22.7 62 16.5 68 68 SSW 5 7 29.94 1014 10 16.0934 0 0
10:35 am 10:35 Sunny 74 23.6 61 16.1 63 63 SSW 7 11 29.91 1013 10 16.0934 0 0
10:55 am 10:55 Sunny 73 23 61 16 65 65 SSW 9 15 29.94 1014 10 16.0934 0 0
11:15 am 11:15 Sunny 74 23.6 60 15.8 62 62 S 9 15 29.91 1013 10 16.0934 0 0
11:35 am 11:35 Sunny 76 24.2 60 15.5 58 58 S 8 13 29.94 1014 10 16.0934 0 0
11:55 am 11:55 Sunny 75 24 58 14.4 55 55 S 8 13 29.94 1014 10 16.0934 0 0
12:15 pm 12:15 Partly Cloudy 76 24.6 59 14.8 55 55 S 8 13 29.94 1014 10 16.0934 0 0
12:35 pm 12:35 Partly Cloudy 77 25.2 58 14.5 52 52 SSE 7 11 29.91 1013 10 16.0934 0 0
12:55 pm 12:55 Partly Cloudy 78 25.5 56 13.3 47 47 ESE 5 7 29.91 1013 10 16.0934 0 0
1:15 pm 13:15 Partly Cloudy 78 25.6 56 13.5 47 47 Calm 29.91 1013 10 16.0934 0 0
1:35 pm 13:35 Partly Cloudy 80 26.4 56 13.6 45 45 SSE 5 7 29.91 1013 10 16.0934 0 0
1:55 pm 13:55 Mostly Cloudy 80 26.7 57 13.9 45 45 S 6 9 29.88 1012 10 16.0934 0 0
2:15 pm 14:15 Mostly Cloudy 80 26.7 56 13.2 43 43 Calm 29.88 1012 10 16.0934 0 0
2:35 pm 14:35 Partly Cloudy 82 27.5 56 13.1 41 41 SE 8 13 29.85 1011 10 16.0934 0 0
2:55 pm 14:55 Mostly Cloudy 81 27.3 56 13.5 43 43 SSE 5 7 29.85 1011 10 16.0934 0 0
3:15 pm 15:15 Partly Cloudy 81 27 57 14 45 45 SSW 7 11 29.85 1011 10 16.0934 0 0
3:35 pm 15:35 Sunny 81 27.4 56 13.1 41 41 SSE 7 11 29.85 1011 10 16.0934 0 0
3:55 pm 15:55 Sunny 80 26.7 55 12.5 41 41 Calm 29.88 1012 10 16.0934 0 0
4:15 pm 16:15 Sunny 82 27.6 55 12.9 40 40 Calm 29.85 1011 10 16.0934 0 0
4:35 pm 16:35 Partly Cloudy 78 25.7 57 14.1 49 49 WNW 16 26 29.88 1012 10 16.0934 0 0
4:55 pm 16:55 Partly Cloudy 80 26.6 58 14.5 47 47 NW 13 20 29.83 1010 10 16.0934 0 0
5:15 pm 17:15 Sunny 80 26.5 58 14.5 48 48 NW 15 24 29.83 1010 10 16.0934 0 0
5:35 pm 17:35 Partly Cloudy 80 26.9 57 13.9 45 45 WNW 13 20 29.83 1010 10 16.0934 0 0
5:55 pm 17:55 Sunny 81 27.1 57 13.7 44 44 NW 9 15 29.83 1010 10 16.0934 0 0
6:15 pm 18:15 Partly Cloudy with Nearby Thunderstorms 81 27.3 56 13.6 43 43 WNW 8 13 29.83 1010 10 16.0934 0 0
6:35 pm 18:35 Mostly Cloudy 82 27.5 56 13.4 42 42 NNW 8 13 29.83 1010 10 16.0934 0 0
6:55 pm 18:55 Mostly Cloudy 78 25.5 58 14.2 50 50 NE 12 19 29.85 1011 10 16.0934 0 0
7:15 pm 19:15 Partly Cloudy 79 26 52 11.3 40 40 ENE 10 17 29.85 1011 10 16.0934 0 0
7:35 pm 19:35 Mostly Cloudy 79 26.2 56 13.2 45 45 N 8 13 29.85 1011 10 16.0934 0 0
7:55 pm 19:55 Cloudy 78 25.5 55 12.6 45 45 N 10 17 29.88 1012 10 16.0934 0 0
8:15 pm 20:15 Cloudy 78 25.3 56 13.1 47 47 N 8 13 29.88 1012 10 16.0934 0 0
8:35 pm 20:35 Cloudy 77 25 56 13.4 49 49 NNW 7 11 29.88 1012 10 16.0934 0 0
8:55 pm 20:55 Cloudy 76 24.4 56 13.5 51 51 N 6 9 29.88 1012 10 16.0934 0 0
9:15 pm 21:15 Partly Cloudy 75 23.7 56 13.6 53 53 NNW 6 9 29.88 1012 10 16.0934 0 0
9:35 pm 21:35 Clear 73 23 57 13.9 57 57 N 5 7 29.91 1013 10 16.0934 0 0
9:55 pm 21:55 Mostly Cloudy 73 22.6 57 13.8 58 58 Calm 29.91 1013 10 16.0934 0 0
10:15 pm 22:15 Mostly Cloudy 72 22.3 57 14 59 59 Calm 29.94 1014 10 16.0934 0 0
10:35 pm 22:35 Partly Cloudy 71 21.5 57 14 62 62 ENE 3 6 29.94 1014 10 16.0934 0 0
10:55 pm 22:55 Clear 70 20.9 57 13.8 64 64 Calm 29.94 1014 10 16.0934 0 0
11:15 pm 23:15 Hazy 69 20.7 57 13.8 65 65 Calm 29.94 1014 4 6.43736 0 0
11:35 pm 23:35 Clear 68 19.8 57 14 69 69 NNW 5 7 29.94 1014 10 16.0934 0 0
11:55 pm 23:55 Clear 68 19.8 57 13.7 68 68 N 3 6 29.94 1014 10 16.0934 0 0

Powered by AerisWeather